COSMOS 2251 DEB, 40236

Orbit data source: Space-Track

COSMOS 2251 DEB, 40236 is space debris in LEO originally from a launch on Wed, 16 Jun 1993 UTC launched from the Plesetsk Missile And Space Complex (PKMTR). The debris from Iridium 33, an American commercial communications satellite, has been tracked extensively since its accidental collision with the defunct Russian satellite Cosmos 2251 in 2009. This event, occurring at high speed in low Earth orbit (LEO), generated thousands of pieces of space debris, significantly increasing the risk of further collisions. The Iridium 33 debris cloud has impacted space traffic management and orbital debris mitigation strategies, making it a subject of ongoing study in space situational awareness.

Loading next visibility...
Identifier
40236, 1993-036BVR
Orbit
LEO
Country
Flag of CISCIS
Related business
Manufacturer
Unknown
Mission
Spacecraft
Bus & Motor
Unknown
Mass
Unknown
Launch date (UTC)
1993-06-16 (32 years ago)
Launch vehicle
Unknown
Launch site
Plesetsk Missile And Space Complex (PKMTR)
Object type
Payload
Rocket body
Debris
Shape & HBR
Unknown shape, 0.1 m
Radar Cross Section
Small (<0.1 m²)

Expand to show TLE details & history
Last TLE update: 2 days ago

TLE from 2 days ago
0 COSMOS 2251 DEB
1 40236U 93036BVR 25294.09049175  .00001650  00000-0  17950-2 0  9999
2 40236  73.5360 226.7089 0535689 111.9673 253.9226 13.24497379529272
Epoch: 2025-10-21T02:10Z
TLE epoch observation values (Epoch: 2025-10-21T02:10:18.487Z)
Latitude
0.00002°
Longitude
164.34844°
Altitude
1,301.54 km
Speed
7.143 km/s
True Right ascension
15h 06m 50s
True Declination
0° 00' 00"
Sunlit
Object was in daylight at epoch
Visualization orbit readout
Latitude
Unknown
Longitude
Unknown
Altitude
Unknown
Speed
Unknown
Apparent Right ascension
Unknown
Apparent Declination
Unknown
Sunlit
N/A
Visualization observer readout
Local Sidereal Time
19:08:42
Azimuth
Unknown
Elevation
Unknown
Doppler factor
Unknown
Orbital elements
Apogee altitude
1,569.468 km
Perigee altitude
761.273 km
Semi-major axis
7,543.508 km
Eccentricity
0.05357
Inclination
73.536°
RAAN
226.7089°
Arg. of periapsis
111.9673°
True anomaly
248.14141°
Mean anomaly
253.9226°
Eccentric anomaly
251.02019°
Mean motion
3.31271 °/min
Orbital period
108.67 mins
BSTAR
0.001795

Documentation

Showing up to 5 results
|